This demonstration page uses our WeatherBlox Daily Observations layout. Learn more.

41.55636, -103.73856

Hourly Observations for May 27, 2017

Temp ( °F °C ) Dew Point ( °F °C ) Humidity (%) Winds ( mph kmh ) Pressure ( in mb ) Visibility ( mi km ) Precip ( " mm )
12:53 am 00:53 Mostly Clear 48 8.9 45 7.2 89 89 SSE 9 15 29.9 1013 10 16.0934 0 0
1:28 am 01:28 Partly Cloudy 48 9 45 7 87 87 SSE 5 7 29.94 1014 10 16.0934 0 0
1:36 am 01:36 Mostly Cloudy 48 9 46 8 94 94 WNW 8 13 29.97 1015 10 16.0934 0 0
1:53 am 01:53 Cloudy 48 8.9 46 7.8 93 93 WNW 9 15 29.94 1014 10 16.0934 0 0
2:31 am 02:31 Cloudy 49 9.4 46 7.8 90 90 WNW 7 11 30 1016 10 16.0934 0 0
2:53 am 02:53 Cloudy 49 9.4 46 7.8 90 90 WNW 7 11 29.94 1014 10 16.0934 0 0
3:53 am 03:53 Cloudy 49 9.4 46 7.8 90 90 NNW 5 7 29.93 1014 10 16.0934 0 0
4:53 am 04:53 Cloudy 49 9.4 47 8.3 93 93 NNW 6 9 29.96 1014 10 16.0934 0 0
5:53 am 05:53 Cloudy 50 10 47 8.3 89 89 WNW 3 6 29.95 1014 10 16.0934 0 0
6:13 am 06:13 Cloudy 50 10 47 8.3 89 89 W 3 6 29.97 1015 10 16.0934 0 0
6:53 am 06:53 Cloudy 50 10 47 8.3 89 89 W 6 9 29.98 1015 10 16.0934 0 0
7:28 am 07:28 Mostly Cloudy 51 10.6 47 8.3 86 86 WNW 9 15 30 1016 10 16.0934 0 0
7:40 am 07:40 Mostly Cloudy 54 12 48 9 82 82 WNW 8 13 30 1016 10 16.0934 0 0
7:44 am 07:44 Mostly Cloudy 54 12 48 9 82 82 WNW 8 13 30 1016 10 16.0934 0 0
7:53 am 07:53 Mostly Cloudy 53 11.7 46 7.8 77 77 NW 12 19 30.01 1016 10 16.0934 0 0
8:05 am 08:05 Partly Cloudy 54 12.2 46 7.8 75 75 NNW 13 20 30 1016 10 16.0934 0 0
8:53 am 08:53 Mostly Cloudy 56 13.3 44 6.7 65 65 NNW 12 19 30.01 1016 10 16.0934 0 0
9:22 am 09:22 Cloudy 55 13 45 7 67 67 NNW 13 20 29.97 1015 10 16.0934 0 0
9:53 am 09:53 Cloudy 58 14.4 45 7.2 62 62 NNW 13 20 30.02 1017 10 16.0934 0 0
10:53 am 10:53 Cloudy 57 13.9 42 5.6 58 58 NW 12 19 30.03 1017 10 16.0934 0 0
11:53 am 11:53 Cloudy 61 16.1 43 6.1 52 52 N 12 19 30.02 1017 10 16.0934 0 0
12:53 pm 12:53 Partly Cloudy 63 17.2 43 6.1 48 48 N 8 13 30.02 1017 10 16.0934 0 0
1:53 pm 13:53 Mostly Cloudy 62 16.7 43 6.1 50 50 N 13 20 30.02 1017 10 16.0934 0 0.0254
2:53 pm 14:53 Mostly Cloudy 61 16.1 39 3.9 44 44 N 15 24 30.03 1017 10 16.0934 0 0
3:08 pm 15:08 Cloudy with Light Rain 61 16 43 6 52 52 NW 12 19 29.97 1015 10 16.0934 0 0
3:53 pm 15:53 Mostly Sunny 65 18.3 40 4.4 40 40 WNW 13 20 30.02 1017 10 16.0934 0 0.0254
4:53 pm 16:53 Partly Cloudy 65 18.3 41 5 42 42 W 9 15 30.03 1017 10 16.0934 0 0.0254
5:53 pm 17:53 Cloudy 63 17.2 41 5 45 45 W 7 11 30.03 1017 10 16.0934 0 0
6:20 pm 18:20 Mostly Cloudy with Nearby Thunderstorms 61 16 39 4 45 45 N 6 9 30 1016 10 16.0934 0 0
6:35 pm 18:35 Mostly Cloudy with Light Rain 61 16.1 41 5 48 48 WSW 3 6 29.97 1015 10 16.0934 0.02 0.508
6:53 pm 18:53 Sunny 62 16.7 43 6.1 50 50 Calm 30.04 1017 10 16.0934 0.02 0.508
7:53 pm 19:53 Sunny 59 15 44 6.7 58 58 S 3 6 30.05 1018 10 16.0934 0 0
8:53 pm 20:53 Clear 53 11.7 47 8.3 80 80 Calm 30.06 1018 10 16.0934 0 0
9:53 pm 21:53 Clear 49 9.4 43 6.1 80 80 NW 5 7 30.09 1019 10 16.0934 0 0
10:53 pm 22:53 Clear 48 8.9 42 5.6 80 80 NW 6 9 30.1 1019 10 16.0934 0 0
11:53 pm 23:53 Clear 46 7.8 41 5 83 83 WNW 5 7 30.1 1019 10 16.0934 0 0

Powered by AerisWeather